RADUGA 3 [-]

Last updated on Jan. 21, 2021, 6:16 a.m. UTC

1 10159U 77071A   21020.84634375  .00000165  00000-0  00000-0 0  9995
2 10159   9.0370 299.8115 0006855 227.9494 294.1260  1.00246254157251
UTC
Height (km)
Latitude
Longitude
Inclination
Orbital Period
UTC large
Height (km)
Speed (km/s)
/
Latitude / Longitude
Inclination (degrees)
Orbital Period (minutes)
Azimuth
Elevation
Range (km)
Doppler Factor
iOS Compass Heading
iOS Angle

Next 30 passes for location: Hong Kong

Rise time Rise Azimuth (degrees) Set time Set Azimuth (degrees) Duration Max altitude (degrees)

No matching passes for this satellites